contact:dominique.lefevre@mio.osupytheas.fr, maurice.libes@osupytheas.fr, didier.mallarino@osupytheas.fr
Project:EMSO http://www.emso-fr.org/EMSO-France
Depth: 2436.0 m
Title:EMSO Ligure Ouest : Data MII capteur CSTAR
DateTime,Latitude,Longitude,Instrument_Serial,Reference_Counts,Signal_Counts,Corrected_Signal_raw_counts,Calculated_Beam_c_inverse_meters,Internal_thermistor_counts
DateTime,Latitude,Longitude,Instrument_Serial,Reference_Counts,Signal_Counts,Corrected_Signal_raw_counts,Calculated_Beam_c_inverse_meters,Internal_thermistor_counts
2023-09-08T00:01:57,42.805,6.029,CST-1368DR,4177,4608,11697,01.156,552
2023-09-08T00:04:58,42.805,6.029,CST-1368DR,4177,4607,11696,01.156,553
2023-09-08T00:08:00,42.805,6.029,CST-1368DR,4177,4608,11697,01.156,552
2023-09-08T00:11:01,42.805,6.029,CST-1368DR,4177,4608,11697,01.156,552
2023-09-08T00:14:03,42.805,6.029,CST-1368DR,4177,4608,11698,01.156,553
2023-09-08T00:17:05,42.805,6.029,CST-1368DR,4177,4608,11698,01.156,553
2023-09-08T00:20:06,42.805,6.029,CST-1368DR,4177,4608,11697,01.156,552
2023-09-08T00:23:08,42.805,6.029,CST-1368DR,4177,4607,11696,01.156,552
2023-09-08T00:26:09,42.805,6.029,CST-1368DR,4177,4608,11698,01.156,553
2023-09-08T00:29:11,42.805,6.029,CST-1368DR,4177,4608,11697,01.156,552
2023-09-08T00:32:12,42.805,6.029,CST-1368DR,4177,4608,11698,01.156,553
2023-09-08T00:35:14,42.805,6.029,CST-1368DR,4177,4608,11698,01.156,553
2023-09-08T00:38:16,42.805,6.029,CST-1368DR,4177,4608,11698,01.156,552
2023-09-08T00:41:17,42.805,6.029,CST-1368DR,4177,4608,11698,01.156,553
2023-09-08T00:44:19,42.805,6.029,CST-1368DR,4177,4608,11697,01.156,552
2023-09-08T00:47:20,42.805,6.029,CST-1368DR,4177,4607,11696,01.156,553
2023-09-08T00:50:22,42.805,6.029,CST-1368DR,4177,4608,11698,01.156,553
2023-09-08T00:53:24,42.805,6.029,CST-1368DR,4177,4608,11698,01.156,553
2023-09-08T00:56:25,42.805,6.029,CST-1368DR,4177,4608,11697,01.156,552
2023-09-08T00:59:27,42.805,6.029,CST-1368DR,4177,4608,11698,01.156,553
2023-09-08T01:02:28,42.805,6.029,CST-1368DR,4177,4608,11698,01.156,552
2023-09-08T01:05:30,42.805,6.029,CST-1368DR,4177,4608,11697,01.156,553
2023-09-08T01:08:31,42.805,6.029,CST-1368DR,4177,4608,11698,01.156,552
2023-09-08T01:11:33,42.805,6.029,CST-1368DR,4177,4607,11697,01.156,553
2023-09-08T01:14:35,42.805,6.029,CST-1368DR,4177,4607,11697,01.156,553
2023-09-08T01:17:36,42.805,6.029,CST-1368DR,4177,4608,11698,01.156,553
2023-09-08T01:20:38,42.805,6.029,CST-1368DR,4177,4608,11699,01.155,553
2023-09-08T01:23:39,42.805,6.029,CST-1368DR,4177,4607,11697,01.156,553
2023-09-08T01:26:41,42.805,6.029,CST-1368DR,4177,4607,11696,01.156,552
2023-09-08T01:29:42,42.805,6.029,CST-1368DR,4177,4608,11698,01.156,552
2023-09-08T01:32:44,42.805,6.029,CST-1368DR,4177,4608,11699,01.155,552
2023-09-08T01:35:46,42.805,6.029,CST-1368DR,4177,4608,11698,01.156,552
2023-09-08T01:38:47,42.805,6.029,CST-1368DR,4177,4608,11698,01.156,553
2023-09-08T01:41:49,42.805,6.029,CST-1368DR,4177,4608,11698,01.156,553
2023-09-08T01:44:50,42.805,6.029,CST-1368DR,4177,4608,11699,01.155,552
2023-09-08T01:47:52,42.805,6.029,CST-1368DR,4177,4608,11698,01.156,553
2023-09-08T01:50:53,42.805,6.029,CST-1368DR,4177,4608,11698,01.156,552
2023-09-08T01:53:55,42.805,6.029,CST-1368DR,4177,4608,11699,01.155,553
2023-09-08T01:56:57,42.805,6.029,CST-1368DR,4177,4608,11698,01.156,552
2023-09-08T01:59:58,42.805,6.029,CST-1368DR,4177,4608,11698,01.156,552
2023-09-08T02:03:00,42.805,6.029,CST-1368DR,4177,4608,11698,01.156,553
2023-09-08T02:06:01,42.805,6.029,CST-1368DR,4177,4608,11697,01.156,552
2023-09-08T02:09:03,42.805,6.029,CST-1368DR,4177,4608,11697,01.156,552
2023-09-08T02:12:05,42.805,6.029,CST-1368DR,4177,4608,11697,01.156,552
2023-09-08T02:15:06,42.805,6.029,CST-1368DR,4177,4608,11699,01.155,553
2023-09-08T02:18:08,42.805,6.029,CST-1368DR,4176,4608,11702,01.154,553
2023-09-08T02:21:09,42.805,6.029,CST-1368DR,4177,4608,11699,01.155,552
2023-09-08T02:24:11,42.805,6.029,CST-1368DR,4177,4607,11697,01.156,553
2023-09-08T02:27:12,42.805,6.029,CST-1368DR,4177,4608,11697,01.156,552
2023-09-08T02:30:14,42.805,6.029,CST-1368DR,4177,4608,11698,01.156,553
2023-09-08T02:33:16,42.805,6.029,CST-1368DR,4177,4608,11698,01.156,553
2023-09-08T02:36:17,42.805,6.029,CST-1368DR,4177,4608,11698,01.156,553
2023-09-08T02:39:19,42.805,6.029,CST-1368DR,4177,4607,11697,01.156,553
2023-09-08T02:42:20,42.805,6.029,CST-1368DR,4177,4607,11697,01.156,553
2023-09-08T02:45:22,42.805,6.029,CST-1368DR,4177,4607,11697,01.156,553
2023-09-08T02:48:24,42.805,6.029,CST-1368DR,4177,4607,11697,01.156,553
2023-09-08T02:51:25,42.805,6.029,CST-1368DR,4177,4606,11692,01.158,553
2023-09-08T02:54:27,42.805,6.029,CST-1368DR,4177,4608,11698,01.156,553
2023-09-08T02:57:28,42.805,6.029,CST-1368DR,4177,4608,11697,01.156,553
2023-09-08T03:00:30,42.805,6.029,CST-1368DR,4177,4607,11695,01.157,553
2023-09-08T03:03:31,42.805,6.029,CST-1368DR,4176,4608,11701,01.154,553
2023-09-08T03:06:33,42.805,6.029,CST-1368DR,4177,4608,11698,01.156,552
2023-09-08T03:09:35,42.805,6.029,CST-1368DR,4177,4608,11698,01.156,553
2023-09-08T03:12:36,42.805,6.029,CST-1368DR,4176,4608,11701,01.154,553
2023-09-08T03:15:38,42.805,6.029,CST-1368DR,4177,4608,11699,01.155,552
2023-09-08T03:18:39,42.805,6.029,CST-1368DR,4177,4607,11696,01.156,553
2023-09-08T03:21:41,42.805,6.029,CST-1368DR,4177,4607,11696,01.156,553
2023-09-08T03:24:42,42.805,6.029,CST-1368DR,4176,4607,11699,01.155,552
2023-09-08T03:27:44,42.805,6.029,CST-1368DR,4177,4608,11699,01.155,553
2023-09-08T03:30:46,42.805,6.029,CST-1368DR,4177,4608,11697,01.156,553
2023-09-08T03:33:47,42.805,6.029,CST-1368DR,4176,4607,11699,01.155,552
2023-09-08T03:36:49,42.805,6.029,CST-1368DR,4176,4607,11698,01.156,552
2023-09-08T03:39:50,42.805,6.029,CST-1368DR,4176,4607,11699,01.155,553
2023-09-08T03:42:52,42.805,6.029,CST-1368DR,4176,4607,11698,01.156,553
2023-09-08T03:45:54,42.805,6.029,CST-1368DR,4176,4607,11697,01.156,553
2023-09-08T03:48:55,42.805,6.029,CST-1368DR,4176,4608,11701,01.154,552
2023-09-08T03:51:57,42.805,6.029,CST-1368DR,4177,4608,11697,01.156,553
2023-09-08T03:54:58,42.805,6.029,CST-1368DR,4176,4604,11690,01.158,552
2023-09-08T03:58:00,42.805,6.029,CST-1368DR,4176,4606,11695,01.157,553
2023-09-08T04:01:01,42.805,6.029,CST-1368DR,4176,4608,11701,01.154,553
2023-09-08T04:04:03,42.805,6.029,CST-1368DR,4177,4608,11697,01.156,552
2023-09-08T04:07:05,42.805,6.029,CST-1368DR,4176,4608,11701,01.154,553
2023-09-08T04:10:06,42.805,6.029,CST-1368DR,4176,4608,11701,01.154,552
2023-09-08T04:13:08,42.805,6.029,CST-1368DR,4176,4608,11701,01.154,552
2023-09-08T04:16:09,42.805,6.029,CST-1368DR,4176,4607,11699,01.155,553
2023-09-08T04:19:11,42.805,6.029,CST-1368DR,4176,4594,11665,01.167,552
2023-09-08T04:22:12,42.805,6.029,CST-1368DR,4177,4608,11699,01.155,552
2023-09-08T04:25:14,42.805,6.029,CST-1368DR,4177,4608,11697,01.156,552
2023-09-08T04:28:16,42.805,6.029,CST-1368DR,4176,4606,11695,01.157,553
2023-09-08T04:31:19,42.805,6.029,CST-1368DR,4176,4608,11700,01.155,553
2023-09-08T04:34:20,42.805,6.029,CST-1368DR,4176,4608,11701,01.154,553
2023-09-08T04:37:22,42.805,6.029,CST-1368DR,4176,4608,11700,01.155,553
2023-09-08T04:40:24,42.805,6.029,CST-1368DR,4176,4606,11695,01.157,552
2023-09-08T04:43:25,42.805,6.029,CST-1368DR,4176,4607,11697,01.156,553
2023-09-08T04:46:27,42.805,6.029,CST-1368DR,4177,4608,11698,01.156,553
2023-09-08T04:49:28,42.805,6.029,CST-1368DR,4176,4608,11700,01.155,552
2023-09-08T04:52:30,42.805,6.029,CST-1368DR,4176,4608,11701,01.154,552
2023-09-08T04:55:31,42.805,6.029,CST-1368DR,4176,4608,11701,01.154,553
2023-09-08T04:58:33,42.805,6.029,CST-1368DR,4176,4608,11701,01.154,552
2023-09-08T05:01:35,42.805,6.029,CST-1368DR,4176,4608,11701,01.154,553
2023-09-08T05:04:36,42.805,6.029,CST-1368DR,4176,4608,11700,01.155,552
2023-09-08T05:07:38,42.805,6.029,CST-1368DR,4176,4608,11701,01.154,553
2023-09-08T05:10:39,42.805,6.029,CST-1368DR,4176,4607,11699,01.155,553
2023-09-08T05:13:41,42.805,6.029,CST-1368DR,4176,4608,11700,01.155,553
2023-09-08T05:16:43,42.805,6.029,CST-1368DR,4176,4608,11700,01.155,553
2023-09-08T05:19:44,42.805,6.029,CST-1368DR,4176,4607,11699,01.155,552
2023-09-08T05:22:46,42.805,6.029,CST-1368DR,4176,4607,11699,01.155,553
2023-09-08T05:25:47,42.805,6.029,CST-1368DR,4176,4607,11699,01.155,553
2023-09-08T05:28:49,42.805,6.029,CST-1368DR,4176,4608,11701,01.154,553
2023-09-08T05:31:50,42.805,6.029,CST-1368DR,4176,4607,11699,01.155,553
2023-09-08T05:34:52,42.805,6.029,CST-1368DR,4176,4607,11699,01.155,552
2023-09-08T05:37:54,42.805,6.029,CST-1368DR,4176,4607,11699,01.155,552
2023-09-08T05:40:55,42.805,6.029,CST-1368DR,4176,4607,11698,01.156,552
2023-09-08T05:43:57,42.805,6.029,CST-1368DR,4176,4607,11699,01.155,553
2023-09-08T05:46:58,42.805,6.029,CST-1368DR,4176,4608,11701,01.154,553
2023-09-08T05:50:00,42.805,6.029,CST-1368DR,4176,4606,11696,01.156,552
2023-09-08T05:53:01,42.805,6.029,CST-1368DR,4176,4607,11698,01.156,552
2023-09-08T05:56:03,42.805,6.029,CST-1368DR,4176,4608,11701,01.154,552
2023-09-08T05:59:05,42.805,6.029,CST-1368DR,4176,4607,11697,01.156,553
2023-09-08T06:02:06,42.805,6.029,CST-1368DR,4176,4607,11698,01.156,552
2023-09-08T06:05:08,42.805,6.029,CST-1368DR,4176,4607,11699,01.155,553
2023-09-08T06:08:09,42.805,6.029,CST-1368DR,4176,4606,11696,01.156,552
2023-09-08T06:11:11,42.805,6.029,CST-1368DR,4176,4607,11697,01.156,553
2023-09-08T06:14:13,42.805,6.029,CST-1368DR,4176,4606,11696,01.156,552
2023-09-08T06:17:14,42.805,6.029,CST-1368DR,4176,4607,11699,01.155,553
2023-09-08T06:20:16,42.805,6.029,CST-1368DR,4176,4606,11695,01.157,553
2023-09-08T06:23:17,42.805,6.029,CST-1368DR,4176,4606,11696,01.156,552
2023-09-08T06:26:19,42.805,6.029,CST-1368DR,4176,4607,11698,01.156,553
2023-09-08T06:29:20,42.805,6.029,CST-1368DR,4176,4608,11700,01.155,552
2023-09-08T06:32:22,42.805,6.029,CST-1368DR,4176,4606,11695,01.157,553
2023-09-08T06:35:24,42.805,6.029,CST-1368DR,4176,4606,11696,01.156,552
2023-09-08T06:38:25,42.805,6.029,CST-1368DR,4176,4607,11699,01.155,553
2023-09-08T06:41:27,42.805,6.029,CST-1368DR,4176,4607,11698,01.156,553
2023-09-08T06:44:28,42.805,6.029,CST-1368DR,4176,4607,11698,01.156,552
2023-09-08T06:47:30,42.805,6.029,CST-1368DR,4176,4606,11696,01.156,552
2023-09-08T06:50:31,42.805,6.029,CST-1368DR,4176,4607,11698,01.156,552
2023-09-08T06:53:33,42.805,6.029,CST-1368DR,4176,4607,11697,01.156,552
2023-09-08T06:56:35,42.805,6.029,CST-1368DR,4176,4606,11695,01.157,553
2023-09-08T06:59:36,42.805,6.029,CST-1368DR,4176,4607,11697,01.156,552
2023-09-08T07:02:38,42.805,6.029,CST-1368DR,4176,4606,11696,01.156,552
2023-09-08T07:05:39,42.805,6.029,CST-1368DR,4176,4605,11694,01.157,553
2023-09-08T07:08:41,42.805,6.029,CST-1368DR,4176,4606,11695,01.157,552
2023-09-08T07:11:43,42.805,6.029,CST-1368DR,4176,4607,11698,01.156,553
2023-09-08T07:14:44,42.805,6.029,CST-1368DR,4176,4607,11698,01.156,553
2023-09-08T07:17:46,42.805,6.029,CST-1368DR,4176,4606,11696,01.156,553
2023-09-08T07:20:47,42.805,6.029,CST-1368DR,4176,4606,11696,01.156,552
2023-09-08T07:23:49,42.805,6.029,CST-1368DR,4176,4607,11697,01.156,553
2023-09-08T07:26:50,42.805,6.029,CST-1368DR,4176,4607,11697,01.156,552
2023-09-08T07:29:52,42.805,6.029,CST-1368DR,4176,4606,11696,01.156,553
2023-09-08T07:32:54,42.805,6.029,CST-1368DR,4176,4605,11694,01.157,552
2023-09-08T07:35:55,42.805,6.029,CST-1368DR,4176,4606,11696,01.156,553
2023-09-08T07:38:57,42.805,6.029,CST-1368DR,4176,4606,11695,01.157,552
2023-09-08T07:41:58,42.805,6.029,CST-1368DR,4176,4606,11695,01.157,553
2023-09-08T07:45:00,42.805,6.029,CST-1368DR,4176,4606,11695,01.157,553
2023-09-08T07:48:01,42.805,6.029,CST-1368DR,4176,4606,11696,01.156,553
2023-09-08T07:51:03,42.805,6.029,CST-1368DR,4176,4606,11695,01.157,553
2023-09-08T07:54:05,42.805,6.029,CST-1368DR,4176,4606,11695,01.157,553
2023-09-08T07:57:06,42.805,6.029,CST-1368DR,4176,4606,11696,01.156,553
2023-09-08T08:00:08,42.805,6.029,CST-1368DR,4176,4607,11698,01.156,553
2023-09-08T08:03:09,42.805,6.029,CST-1368DR,4176,4606,11696,01.156,553
2023-09-08T08:06:11,42.805,6.029,CST-1368DR,4176,4606,11696,01.156,552
2023-09-08T08:09:13,42.805,6.029,CST-1368DR,4176,4606,11695,01.157,553
2023-09-08T08:12:14,42.805,6.029,CST-1368DR,4176,4607,11699,01.155,552
2023-09-08T08:15:16,42.805,6.029,CST-1368DR,4176,4605,11694,01.157,553
2023-09-08T08:18:17,42.805,6.029,CST-1368DR,4176,4606,11695,01.157,553
2023-09-08T08:21:19,42.805,6.029,CST-1368DR,4176,4606,11696,01.156,552
2023-09-08T08:24:20,42.805,6.029,CST-1368DR,4176,4606,11696,01.156,552
2023-09-08T08:27:22,42.805,6.029,CST-1368DR,4176,4606,11695,01.157,552
2023-09-08T08:30:25,42.805,6.029,CST-1368DR,4176,4606,11695,01.157,552
2023-09-08T08:33:27,42.805,6.029,CST-1368DR,4176,4607,11699,01.155,553
2023-09-08T08:36:28,42.805,6.029,CST-1368DR,4176,4607,11697,01.156,552
2023-09-08T08:39:30,42.805,6.029,CST-1368DR,4176,4607,11697,01.156,553
2023-09-08T08:42:32,42.805,6.029,CST-1368DR,4176,4606,11696,01.156,553
2023-09-08T08:45:33,42.805,6.029,CST-1368DR,4176,4606,11696,01.156,553
2023-09-08T08:48:35,42.805,6.029,CST-1368DR,4176,4606,11696,01.156,552
2023-09-08T08:51:36,42.805,6.029,CST-1368DR,4176,4607,11698,01.156,553
2023-09-08T08:54:38,42.805,6.029,CST-1368DR,4176,4606,11695,01.157,553
2023-09-08T08:57:40,42.805,6.029,CST-1368DR,4176,4607,11698,01.156,553
2023-09-08T09:00:41,42.805,6.029,CST-1368DR,4176,4607,11699,01.155,553
2023-09-08T09:03:43,42.805,6.029,CST-1368DR,4176,4607,11698,01.156,552
2023-09-08T09:06:44,42.805,6.029,CST-1368DR,4176,4607,11698,01.156,552
2023-09-08T09:09:46,42.805,6.029,CST-1368DR,4176,4606,11695,01.157,553
2023-09-08T09:12:47,42.805,6.029,CST-1368DR,4176,4607,11697,01.156,552
2023-09-08T09:15:49,42.805,6.029,CST-1368DR,4176,4607,11699,01.155,552
2023-09-08T09:18:51,42.805,6.029,CST-1368DR,4176,4607,11699,01.155,553
2023-09-08T09:21:52,42.805,6.029,CST-1368DR,4176,4607,11698,01.156,553
2023-09-08T09:24:54,42.805,6.029,CST-1368DR,4176,4607,11698,01.156,552
2023-09-08T09:27:55,42.805,6.029,CST-1368DR,4176,4607,11699,01.155,552
2023-09-08T09:30:57,42.805,6.029,CST-1368DR,4176,4607,11698,01.156,552
2023-09-08T09:33:58,42.805,6.029,CST-1368DR,4176,4607,11699,01.155,553
2023-09-08T09:37:00,42.805,6.029,CST-1368DR,4176,4607,11699,01.155,553
2023-09-08T09:40:02,42.805,6.029,CST-1368DR,4176,4607,11697,01.156,552
2023-09-08T09:43:03,42.805,6.029,CST-1368DR,4176,4607,11697,01.156,553
2023-09-08T09:46:05,42.805,6.029,CST-1368DR,4176,4607,11698,01.156,552
2023-09-08T09:49:06,42.805,6.029,CST-1368DR,4176,4607,11697,01.156,553
2023-09-08T09:52:08,42.805,6.029,CST-1368DR,4176,4607,11698,01.156,552
2023-09-08T09:55:10,42.805,6.029,CST-1368DR,4176,4606,11695,01.157,553
2023-09-08T09:58:11,42.805,6.029,CST-1368DR,4176,4607,11698,01.156,552
2023-09-08T10:01:13,42.805,6.029,CST-1368DR,4176,4607,11699,01.155,553
2023-09-08T10:04:14,42.805,6.029,CST-1368DR,4176,4606,11696,01.156,553
2023-09-08T10:07:16,42.805,6.029,CST-1368DR,4176,4606,11696,01.156,552
2023-09-08T10:10:17,42.805,6.029,CST-1368DR,4176,4607,11698,01.156,552
2023-09-08T10:13:19,42.805,6.029,CST-1368DR,4176,4606,11695,01.157,552
2023-09-08T10:16:21,42.805,6.029,CST-1368DR,4176,4606,11695,01.157,552
2023-09-08T10:19:22,42.805,6.029,CST-1368DR,4176,4606,11696,01.156,553
2023-09-08T10:22:24,42.805,6.029,CST-1368DR,4176,4607,11699,01.155,552
2023-09-08T10:25:25,42.805,6.029,CST-1368DR,4176,4604,11691,01.158,552
2023-09-08T10:28:27,42.805,6.029,CST-1368DR,4176,4606,11695,01.157,552
2023-09-08T10:31:28,42.805,6.029,CST-1368DR,4176,4606,11696,01.156,552
2023-09-08T10:34:30,42.805,6.029,CST-1368DR,4176,4606,11696,01.156,552
2023-09-08T10:37:32,42.805,6.029,CST-1368DR,4176,4606,11696,01.156,553
2023-09-08T10:40:33,42.805,6.029,CST-1368DR,4176,4606,11696,01.156,552
2023-09-08T10:43:35,42.805,6.029,CST-1368DR,4176,4606,11695,01.157,553
2023-09-08T10:46:36,42.805,6.029,CST-1368DR,4176,4606,11696,01.156,553
2023-09-08T10:49:38,42.805,6.029,CST-1368DR,4176,4606,11695,01.157,553
2023-09-08T10:52:40,42.805,6.029,CST-1368DR,4176,4607,11697,01.156,553
2023-09-08T10:55:41,42.805,6.029,CST-1368DR,4176,4606,11696,01.156,553
2023-09-08T10:58:43,42.805,6.029,CST-1368DR,4176,4606,11695,01.157,552
2023-09-08T11:01:44,42.805,6.029,CST-1368DR,4176,4606,11695,01.157,552
2023-09-08T11:04:46,42.805,6.029,CST-1368DR,4176,4607,11697,01.156,553
2023-09-08T11:07:47,42.805,6.029,CST-1368DR,4176,4606,11695,01.157,553
2023-09-08T11:10:49,42.805,6.029,CST-1368DR,4176,4606,11695,01.157,553
2023-09-08T11:13:51,42.805,6.029,CST-1368DR,4176,4606,11695,01.157,553
2023-09-08T11:16:52,42.805,6.029,CST-1368DR,4176,4606,11695,01.157,553
2023-09-08T11:19:54,42.805,6.029,CST-1368DR,4176,4605,11694,01.157,553
2023-09-08T11:22:55,42.805,6.029,CST-1368DR,4176,4606,11696,01.156,552
2023-09-08T11:25:57,42.805,6.029,CST-1368DR,4176,4606,11695,01.157,552
2023-09-08T11:28:58,42.805,6.029,CST-1368DR,4176,4606,11695,01.157,552
2023-09-08T11:32:00,42.805,6.029,CST-1368DR,4176,4605,11692,01.158,552
2023-09-08T11:35:02,42.805,6.029,CST-1368DR,4176,4606,11695,01.157,552
2023-09-08T11:38:03,42.805,6.029,CST-1368DR,4176,4606,11695,01.157,553
2023-09-08T11:41:05,42.805,6.029,CST-1368DR,4176,4605,11694,01.157,553
2023-09-08T11:44:06,42.805,6.029,CST-1368DR,4176,4606,11695,01.157,553
2023-09-08T11:47:08,42.805,6.029,CST-1368DR,4176,4605,11692,01.158,553
2023-09-08T11:50:10,42.805,6.029,CST-1368DR,4176,4605,11694,01.157,553
2023-09-08T11:53:11,42.805,6.029,CST-1368DR,4176,4606,11695,01.157,553
2023-09-08T11:56:13,42.805,6.029,CST-1368DR,4176,4605,11694,01.157,553
2023-09-08T11:59:14,42.805,6.029,CST-1368DR,4176,4606,11695,01.157,553
2023-09-08T12:02:16,42.805,6.029,CST-1368DR,4176,4605,11693,01.157,552
2023-09-08T12:05:17,42.805,6.029,CST-1368DR,4176,4605,11692,01.158,552
2023-09-08T12:08:19,42.805,6.029,CST-1368DR,4176,4605,11694,01.157,552
2023-09-08T12:11:21,42.805,6.029,CST-1368DR,4176,4605,11694,01.157,553
2023-09-08T12:14:22,42.805,6.029,CST-1368DR,4176,4605,11693,01.157,553
2023-09-08T12:17:24,42.805,6.029,CST-1368DR,4176,4605,11694,01.157,553
2023-09-08T12:20:25,42.805,6.029,CST-1368DR,4176,4605,11693,01.157,552
2023-09-08T12:23:27,42.805,6.029,CST-1368DR,4176,4605,11692,01.158,553
2023-09-08T12:26:28,42.805,6.029,CST-1368DR,4176,4605,11692,01.158,552
2023-09-08T12:29:30,42.805,6.029,CST-1368DR,4176,4604,11692,01.158,552
2023-09-08T12:32:32,42.805,6.029,CST-1368DR,4176,4604,11692,01.158,553
2023-09-08T12:35:33,42.805,6.029,CST-1368DR,4176,4604,11691,01.158,553
2023-09-08T12:38:35,42.805,6.029,CST-1368DR,4176,4604,11692,01.158,553
2023-09-08T12:41:36,42.805,6.029,CST-1368DR,4176,4603,11689,01.159,553
2023-09-08T12:44:38,42.805,6.029,CST-1368DR,4176,4604,11690,01.158,552
2023-09-08T12:47:40,42.805,6.029,CST-1368DR,4176,4604,11691,01.158,553
2023-09-08T12:50:41,42.805,6.029,CST-1368DR,4176,4604,11690,01.158,552
2023-09-08T12:53:43,42.805,6.029,CST-1368DR,4176,4604,11690,01.158,553
2023-09-08T12:56:44,42.805,6.029,CST-1368DR,4176,4604,11691,01.158,553
2023-09-08T12:59:46,42.805,6.029,CST-1368DR,4176,4604,11690,01.158,553
2023-09-08T13:02:47,42.805,6.029,CST-1368DR,4176,4604,11690,01.158,552
2023-09-08T13:05:49,42.805,6.029,CST-1368DR,4176,4604,11691,01.158,553
2023-09-08T13:08:51,42.805,6.029,CST-1368DR,4176,4604,11691,01.158,553
2023-09-08T13:11:52,42.805,6.029,CST-1368DR,4176,4604,11690,01.158,553
2023-09-08T13:14:54,42.805,6.029,CST-1368DR,4176,4604,11690,01.158,552
2023-09-08T13:17:55,42.805,6.029,CST-1368DR,4176,4603,11687,01.159,552
2023-09-08T13:20:57,42.805,6.029,CST-1368DR,4176,4604,11690,01.158,553
2023-09-08T13:23:58,42.805,6.029,CST-1368DR,4176,4604,11690,01.158,552
2023-09-08T13:27:00,42.805,6.029,CST-1368DR,4176,4604,11690,01.158,552
2023-09-08T13:30:02,42.805,6.029,CST-1368DR,4176,4604,11691,01.158,553
2023-09-08T13:33:03,42.805,6.029,CST-1368DR,4176,4604,11692,01.158,552
2023-09-08T13:36:05,42.805,6.029,CST-1368DR,4176,4604,11692,01.158,552
2023-09-08T13:39:06,42.805,6.029,CST-1368DR,4176,4604,11692,01.158,553
2023-09-08T13:42:08,42.805,6.029,CST-1368DR,4176,4604,11690,01.158,553
2023-09-08T13:45:10,42.805,6.029,CST-1368DR,4176,4604,11692,01.158,552
2023-09-08T13:48:11,42.805,6.029,CST-1368DR,4176,4604,11692,01.158,553
2023-09-08T13:51:13,42.805,6.029,CST-1368DR,4176,4605,11694,01.157,553
2023-09-08T13:54:14,42.805,6.029,CST-1368DR,4176,4605,11692,01.158,553
2023-09-08T13:57:16,42.805,6.029,CST-1368DR,4176,4605,11692,01.158,553
2023-09-08T14:00:17,42.805,6.029,CST-1368DR,4176,4605,11693,01.157,553
2023-09-08T14:03:19,42.805,6.029,CST-1368DR,4176,4605,11693,01.157,553
2023-09-08T14:06:21,42.805,6.029,CST-1368DR,4176,4604,11692,01.158,553
2023-09-08T14:09:22,42.805,6.029,CST-1368DR,4176,4604,11691,01.158,552
2023-09-08T14:12:24,42.805,6.029,CST-1368DR,4176,4604,11692,01.158,552
2023-09-08T14:15:25,42.805,6.029,CST-1368DR,4176,4605,11694,01.157,553
2023-09-08T14:18:27,42.805,6.029,CST-1368DR,4176,4605,11692,01.158,553
2023-09-08T14:21:29,42.805,6.029,CST-1368DR,4176,4605,11692,01.158,552
2023-09-08T14:24:30,42.805,6.029,CST-1368DR,4176,4605,11693,01.157,552
2023-09-08T14:27:32,42.805,6.029,CST-1368DR,4176,4605,11694,01.157,552
2023-09-08T14:30:34,42.805,6.029,CST-1368DR,4176,4605,11692,01.158,552
2023-09-08T14:33:35,42.805,6.029,CST-1368DR,4176,4604,11692,01.158,553
2023-09-08T14:36:37,42.805,6.029,CST-1368DR,4176,4604,11692,01.158,552
2023-09-08T14:39:38,42.805,6.029,CST-1368DR,4176,4604,11690,01.158,552
2023-09-08T14:42:40,42.805,6.029,CST-1368DR,4176,4605,11692,01.158,553
2023-09-08T14:45:41,42.805,6.029,CST-1368DR,4176,4604,11692,01.158,552
2023-09-08T14:48:43,42.805,6.029,CST-1368DR,4176,4605,11692,01.158,552
2023-09-08T14:51:45,42.805,6.029,CST-1368DR,4176,4605,11692,01.158,553
2023-09-08T14:54:46,42.805,6.029,CST-1368DR,4176,4604,11691,01.158,553
2023-09-08T14:57:48,42.805,6.029,CST-1368DR,4176,4605,11693,01.157,552
2023-09-08T15:00:49,42.805,6.029,CST-1368DR,4176,4605,11694,01.157,552
2023-09-08T15:03:51,42.805,6.029,CST-1368DR,4176,4604,11691,01.158,552
2023-09-08T15:06:52,42.805,6.029,CST-1368DR,4176,4605,11692,01.158,553
2023-09-08T15:09:54,42.805,6.029,CST-1368DR,4176,4605,11693,01.157,552
2023-09-08T15:12:56,42.805,6.029,CST-1368DR,4176,4597,11673,01.164,553
2023-09-08T15:15:57,42.805,6.029,CST-1368DR,4176,4604,11690,01.158,553
2023-09-08T15:18:59,42.805,6.029,CST-1368DR,4176,4605,11693,01.157,553
2023-09-08T15:22:00,42.805,6.029,CST-1368DR,4176,4605,11692,01.158,552
2023-09-08T15:25:02,42.805,6.029,CST-1368DR,4176,4605,11694,01.157,552
2023-09-08T15:28:04,42.805,6.029,CST-1368DR,4176,4605,11692,01.158,553
2023-09-08T15:31:05,42.805,6.029,CST-1368DR,4176,4604,11690,01.158,553
2023-09-08T15:34:07,42.805,6.029,CST-1368DR,4176,4604,11691,01.158,553
2023-09-08T15:37:08,42.805,6.029,CST-1368DR,4176,4605,11692,01.158,552
2023-09-08T15:40:10,42.805,6.029,CST-1368DR,4176,4604,11690,01.158,552
2023-09-08T15:43:11,42.805,6.029,CST-1368DR,4176,4604,11690,01.158,552
2023-09-08T15:46:13,42.805,6.029,CST-1368DR,4176,4604,11690,01.158,552
2023-09-08T15:49:15,42.805,6.029,CST-1368DR,4176,4603,11687,01.159,552
2023-09-08T15:52:16,42.805,6.029,CST-1368DR,4176,4603,11689,01.159,552
2023-09-08T15:55:18,42.805,6.029,CST-1368DR,4176,4604,11690,01.158,552
2023-09-08T15:58:19,42.805,6.029,CST-1368DR,4176,4604,11690,01.158,553
2023-09-08T16:01:21,42.805,6.029,CST-1368DR,4176,4602,11686,01.160,553
2023-09-08T16:04:22,42.805,6.029,CST-1368DR,4176,4603,11688,01.159,553
2023-09-08T16:07:24,42.805,6.029,CST-1368DR,4176,4604,11690,01.158,553
2023-09-08T16:10:26,42.805,6.029,CST-1368DR,4176,4604,11690,01.158,553
2023-09-08T16:13:27,42.805,6.029,CST-1368DR,4176,4603,11689,01.159,552
2023-09-08T16:16:29,42.805,6.029,CST-1368DR,4176,4603,11688,01.159,553
2023-09-08T16:19:30,42.805,6.029,CST-1368DR,4176,4604,11690,01.158,553
2023-09-08T16:22:32,42.805,6.029,CST-1368DR,4176,4604,11691,01.158,552
2023-09-08T16:25:34,42.805,6.029,CST-1368DR,4176,4603,11688,01.159,553
2023-09-08T16:28:35,42.805,6.029,CST-1368DR,4176,4604,11690,01.158,553
2023-09-08T16:31:37,42.805,6.029,CST-1368DR,4176,4605,11692,01.158,552
2023-09-08T16:34:39,42.805,6.029,CST-1368DR,4176,4604,11690,01.158,553
2023-09-08T16:37:41,42.805,6.029,CST-1368DR,4176,4603,11688,01.159,552